TimeCST,TemperatureF,Dew PointF,Humidity,Sea Level PressureIn,VisibilityMPH,Wind Direction,Wind SpeedMPH,Gust SpeedMPH,PrecipitationIn,Events,Conditions,WindDirDegrees,DateUTC
12:53 AM,43.0,23.0,45,29.94,10.0,WNW,8.1,-,N/A,,Clear,300,2014-01-21 06:53:00
1:53 AM,42.1,23.0,47,29.94,10.0,WNW,9.2,-,N/A,,Clear,300,2014-01-21 07:53:00
2:53 AM,42.1,24.1,49,29.95,10.0,NW,17.3,21.9,N/A,,Overcast,320,2014-01-21 08:53:00
3:53 AM,39.0,19.0,45,29.99,10.0,NW,24.2,34.5,N/A,,Overcast,320,2014-01-21 09:53:00
4:53 AM,34.0,18.0,52,30.05,10.0,NW,32.2,41.4,N/A,,Overcast,320,2014-01-21 10:53:00
5:53 AM,30.0,15.1,54,30.11,10.0,NNW,26.5,40.3,N/A,,Mostly Cloudy,340,2014-01-21 11:53:00
6:53 AM,27.0,12.0,53,30.18,10.0,NNW,26.5,41.4,N/A,,Overcast,340,2014-01-21 12:53:00
7:53 AM,25.0,9.0,51,30.24,10.0,NNW,19.6,31.1,N/A,,Mostly Cloudy,340,2014-01-21 13:53:00
8:53 AM,25.0,8.1,49,30.27,10.0,NNW,23.0,36.8,N/A,,Clear,340,2014-01-21 14:53:00
9:53 AM,24.1,8.1,51,30.32,10.0,NNW,23.0,31.1,N/A,,Overcast,330,2014-01-21 15:53:00
10:53 AM,25.0,7.0,46,30.32,10.0,North,20.7,-,N/A,,Scattered Clouds,10,2014-01-21 16:53:00
11:53 AM,24.1,6.1,46,30.32,10.0,NNW,16.1,26.5,N/A,,Mostly Cloudy,340,2014-01-21 17:53:00
12:53 PM,25.0,5.0,43,30.31,10.0,NNW,12.7,-,N/A,,Partly Cloudy,330,2014-01-21 18:53:00
1:53 PM,26.1,6.1,43,30.30,10.0,NNW,13.8,23.0,N/A,,Partly Cloudy,340,2014-01-21 19:53:00
2:53 PM,27.0,5.0,39,30.29,10.0,North,13.8,18.4,N/A,,Clear,360,2014-01-21 20:53:00
3:53 PM,27.0,6.1,41,30.30,10.0,North,11.5,-,N/A,,Clear,10,2014-01-21 21:53:00
4:53 PM,25.0,5.0,43,30.30,10.0,North,10.4,-,N/A,,Clear,10,2014-01-21 22:53:00
5:53 PM,24.1,6.1,46,30.30,10.0,NNE,5.8,-,N/A,,Clear,30,2014-01-21 23:53:00
6:53 PM,23.0,6.1,48,30.30,10.0,NE,8.1,-,N/A,,Clear,40,2014-01-22 00:53:00
7:53 PM,21.9,5.0,48,30.30,10.0,NE,5.8,-,N/A,,Scattered Clouds,40,2014-01-22 01:53:00
8:53 PM,21.9,7.0,53,30.29,10.0,East,5.8,-,N/A,,Mostly Cloudy,80,2014-01-22 02:53:00
9:53 PM,21.0,9.0,60,30.28,10.0,East,4.6,-,N/A,,Partly Cloudy,100,2014-01-22 03:53:00
10:53 PM,21.0,9.0,60,30.28,10.0,East,6.9,-,N/A,,Mostly Cloudy,90,2014-01-22 04:53:00
11:53 PM,21.0,9.0,60,30.28,10.0,East,4.6,-,N/A,,Overcast,80,2014-01-22 05:53:00